This is the latest recevied weather packets stored in our database for station/object VA3XLT-1. If no packets are shown the sender has not sent any weather packets the latest 10 day(s).
| Time | Temp. | Humidity | Pressure | Rain* | Wind** | Luminosity | Snow |
|---|---|---|---|---|---|---|---|
| 1777921360 | 22.22° C | 47% | 1002.8 hPa | 0 mm | - | - | - |
| 1777921060 | 22.22° C | 48% | 1002.8 hPa | 0 mm | - | - | - |
| 1777920760 | 21.67° C | 49% | 1002.9 hPa | 0 mm | - | - | - |
| 1777920460 | 21.67° C | 49% | 1002.9 hPa | 0 mm | - | - | - |
| 1777920160 | 21.11° C | 49% | 1003.1 hPa | 0 mm | - | - | - |
| 1777919860 | 22.22° C | 48% | 1003.1 hPa | 0 mm | - | - | - |
| 1777919560 | 21.67° C | 48% | 1003.2 hPa | 0 mm | - | - | - |
| 1777919260 | 22.22° C | 46% | 1003.2 hPa | 0 mm | - | - | - |
| 1777918960 | 22.22° C | 47% | 1003.2 hPa | 0 mm | - | - | - |
| 1777918660 | 21.67° C | 47% | 1003.3 hPa | 0 mm | - | - | - |
| 1777918360 | 22.22° C | 48% | 1003.4 hPa | 0 mm | - | - | - |
| 1777918060 | 21.67° C | 48% | 1003.4 hPa | 0 mm | - | - | - |
| 1777917760 | 21.11° C | 49% | 1003.5 hPa | 0 mm | - | - | - |
| 1777917460 | 21.67° C | 49% | 1003.5 hPa | 0 mm | - | - | - |
| 1777917160 | 22.22° C | 48% | 1003.6 hPa | 0 mm | - | - | - |
| 1777916860 | 21.67° C | 49% | 1003.6 hPa | 0 mm | - | - | - |
| 1777916560 | 21.67° C | 50% | 1003.7 hPa | 0 mm | - | - | - |
| 1777916260 | 21.11° C | 49% | 1003.8 hPa | 0 mm | - | - | - |
| 1777915960 | 21.11° C | 50% | 1003.8 hPa | 0 mm | - | - | - |
| 1777915660 | 22.22° C | 49% | 1003.7 hPa | 0 mm | - | - | - |
| 1777915360 | 22.22° C | 49% | 1003.7 hPa | 0 mm | - | - | - |
| 1777915060 | 21.67° C | 48% | 1003.8 hPa | 0 mm | - | - | - |
| 1777914760 | 22.22° C | 50% | 1003.8 hPa | 0 mm | - | - | - |
| 1777914460 | 21.67° C | 47% | 1003.9 hPa | 0 mm | - | - | - |
| 1777914160 | 21.67° C | 47% | 1004.1 hPa | 0 mm | - | - | - |
* Rain latest hour (hover to see other rain measurements)
** Current wind speed in m/s (hover to see current wind gust speed)